Location: Dumpton Point
(51.3500°N, 1.4433°E)
Time: 14:38:01
(UTC+00:00)

N. Korean satellite - Visible Passes

Search period start: 25 February 2021 00:00
Search period end: 07 March 2021 00:00
Orbit: 451 x 503 km, 97.2° (Epoch: 24 February)

Date Brightness Start Highest point End Pass type
(mag) Time Alt. Az. Time Alt. Az. Time Alt. Az.
25 Feb 8.3 04:58:19 10° NNE 05:01:32 34° E 05:04:45 10° SSE visible
26 Feb 9.5 04:32:09 10° NE 04:34:38 18° E 04:37:08 10° SE visible
26 Feb 7.0 06:04:51 10° N 06:08:07 39° WNW 06:11:24 10° SW visible
27 Feb 6.4 05:37:57 10° N 05:41:27 80° WNW 05:44:58 10° SSW visible
28 Feb 7.5 05:11:17 10° NNE 05:14:41 49° E 05:18:08 10° S visible
01 Mar 8.9 04:44:53 10° NE 04:47:50 25° E 04:50:49 10° SSE visible
02 Mar 9.8 04:19:03 10° ENE 04:20:53 13° E 04:22:42 10° ESE visible
02 Mar 6.6 05:51:04 10° N 05:54:30 56° WNW 05:58:00 10° SSW visible
03 Mar 6.8 05:24:15 10° NNE 05:27:47 71° ESE 05:31:21 10° S visible
04 Mar 8.3 04:57:41 10° NNE 05:00:57 34° E 05:04:15 10° SSE visible
05 Mar 9.5 04:31:28 10° NE 04:34:01 18° E 04:36:35 10° SE visible
06 Mar 6.5 05:37:14 10° NNE 05:40:47 81° WNW 05:44:23 10° SSW visible
